TimeAST,TemperatureF,Dew PointF,Humidity,Sea Level PressureIn,VisibilityMPH,Wind Direction,Wind SpeedMPH,Gust SpeedMPH,PrecipitationIn,Events,Conditions,WindDirDegrees,DateUTC
12:00 AM,75.2,60.8,61,29.89,-9999.0,ESE,5.8,-,N/A,,Clear,120,2013-03-17 21:00:00
12:30 AM,75.2,60.8,61,29.86,-9999.0,ESE,6.9,-,N/A,,Clear,110,2013-03-17 21:30:00
1:00 AM,75.2,60.8,61,29.86,-9999.0,SE,6.9,-,N/A,,Clear,130,2013-03-17 22:00:00
1:30 AM,75.2,62.6,65,29.86,-9999.0,ESE,9.2,-,N/A,,Clear,120,2013-03-17 22:30:00
2:00 AM,75.2,62.6,65,29.86,-9999.0,ESE,9.2,-,N/A,,Clear,120,2013-03-17 23:00:00
2:30 AM,75.2,62.6,65,29.86,-9999.0,ESE,9.2,-,N/A,,Clear,120,2013-03-17 23:30:00
3:00 AM,75,63,59,29.87,6,ESE,9.2,,,,,120,2013-03-18 00:00:00
3:00 AM,75.2,62.6,65,29.86,-9999.0,ESE,9.2,-,N/A,,Clear,120,2013-03-18 00:00:00
3:30 AM,73.4,64.4,73,29.86,-9999.0,ESE,6.9,-,N/A,,Clear,120,2013-03-18 00:30:00
4:00 AM,73.4,66.2,78,29.86,-9999.0,ESE,6.9,-,N/A,,Clear,120,2013-03-18 01:00:00
4:30 AM,73.4,66.2,78,29.86,-9999.0,ESE,6.9,-,N/A,,Clear,120,2013-03-18 01:30:00
5:00 AM,73.4,66.2,78,29.86,-9999.0,SE,8.1,-,N/A,,Clear,130,2013-03-18 02:00:00
5:30 AM,73.4,64.4,73,29.86,-9999.0,SE,6.9,-,N/A,,Clear,130,2013-03-18 02:30:00
6:00 AM,73.4,62.6,69,29.89,-9999.0,SE,9.2,-,N/A,,Clear,130,2013-03-18 03:00:00
6:30 AM,75.2,62.6,65,29.89,-9999.0,SE,8.1,-,N/A,,Clear,130,2013-03-18 03:30:00
7:00 AM,77.0,62.6,61,29.92,-9999.0,ESE,8.1,-,N/A,,Clear,120,2013-03-18 04:00:00
8:00 AM,80.6,60.8,51,29.92,-9999.0,SE,10.4,-,N/A,,Clear,130,2013-03-18 05:00:00
9:00 AM,83,59,34,29.95,6,SE,11.5,,,,Scattered Clouds,140,2013-03-18 06:00:00
9:00 AM,82.4,59.0,45,29.95,-9999.0,SE,11.5,-,N/A,,Clear,140,2013-03-18 06:00:00
9:30 AM,82.4,57.2,42,29.95,-9999.0,SSE,11.5,-,N/A,,Clear,150,2013-03-18 06:30:00
10:00 AM,84.2,53.6,35,29.92,-9999.0,SSE,12.7,-,N/A,,Clear,150,2013-03-18 07:00:00
10:30 AM,84.2,53.6,35,29.92,-9999.0,SE,13.8,-,N/A,,Clear,140,2013-03-18 07:30:00
11:00 AM,84.2,51.8,33,29.92,-9999.0,SSE,15.0,-,N/A,,Clear,150,2013-03-18 08:00:00
11:30 AM,86.0,51.8,31,29.89,-9999.0,SE,13.8,-,N/A,,Clear,140,2013-03-18 08:30:00
12:00 PM,86.0,55.4,35,29.89,-9999.0,SE,13.8,-,N/A,,Clear,140,2013-03-18 09:00:00
1:00 PM,87.8,66.2,49,29.86,-9999.0,SSE,10.4,-,N/A,,Clear,150,2013-03-18 10:00:00
1:30 PM,87.8,48.2,25,29.83,-9999.0,SE,12.7,-,N/A,,Clear,130,2013-03-18 10:30:00
2:00 PM,86.0,46.4,25,29.83,-9999.0,SE,13.8,-,N/A,,Clear,140,2013-03-18 11:00:00
2:30 PM,86.0,46.4,25,29.80,-9999.0,SSE,13.8,-,N/A,,Clear,150,2013-03-18 11:30:00
3:00 PM,86,48,17,29.82,7,SE,11.5,,,,Partly Cloudy,140,2013-03-18 12:00:00
3:00 PM,86.0,48.2,27,29.80,-9999.0,SE,11.5,-,N/A,,Clear,140,2013-03-18 12:00:00
3:30 PM,87.8,48.2,25,29.80,-9999.0,SE,10.4,-,N/A,,Clear,140,2013-03-18 12:30:00
4:00 PM,86.0,46.4,25,29.80,-9999.0,SE,10.4,-,N/A,,Clear,140,2013-03-18 13:00:00
5:00 PM,84.2,55.4,37,29.80,-9999.0,ESE,4.6,-,N/A,,Clear,110,2013-03-18 14:00:00
5:30 PM,82.4,57.2,42,29.80,-9999.0,East,5.8,-,N/A,,Clear,100,2013-03-18 14:30:00
6:00 PM,78.8,60.8,54,29.80,-9999.0,East,5.8,-,N/A,,Clear,100,2013-03-18 15:00:00
6:30 PM,78.8,60.8,54,29.80,-9999.0,ESE,6.9,-,N/A,,Clear,120,2013-03-18 15:30:00
7:00 PM,77.0,62.6,61,29.80,-9999.0,SE,8.1,-,N/A,,Clear,130,2013-03-18 16:00:00
7:30 PM,78.8,59.0,51,29.80,-9999.0,SE,6.9,-,N/A,,Clear,130,2013-03-18 16:30:00
8:30 PM,78.8,57.2,47,29.80,-9999.0,SSE,3.5,-,N/A,,Clear,160,2013-03-18 17:30:00
9:00 PM,79,52,29,29.82,6,SSE,4.6,,,,Scattered Clouds,150,2013-03-18 18:00:00
9:00 PM,78.8,51.8,39,29.80,-9999.0,SSE,4.6,-,N/A,,Clear,150,2013-03-18 18:00:00
9:30 PM,78.8,53.6,42,29.80,-9999.0,East,3.5,-,N/A,,Clear,100,2013-03-18 18:30:00
10:00 PM,78.8,55.4,44,29.80,-9999.0,NNE,4.6,-,N/A,,Clear,20,2013-03-18 19:00:00
10:30 PM,77.0,59.0,54,29.80,-9999.0,East,4.6,-,N/A,,Clear,80,2013-03-18 19:30:00
11:00 PM,77.0,60.8,57,29.80,-9999.0,ENE,3.5,-,N/A,,Clear,60,2013-03-18 20:00:00